Regional Weather Roundup
Issued by NWS State College, PA

Home | Current Version | Previous Version | Text Only | Print | Product List | Glossary Off
Versions: 1 2 3 4 5 6 7 8 9 10 11 12 13 14 15 16 17 18 19 20 21 22 23 24 25 26 27 28 29 30 31 32 33 34 35 36 37 38 39 40 41 42 43 44 45 46 47 48 49 50

000
ASUS41 KCTP 021503
RWRCTP

REGIONAL WEATHER ROUNDUP
NATIONAL WEATHER SERVICE STATE COLLEGE PA
1100 AM EDT WED SEP 02 2015

Note: "fair" indicates few or no clouds below 12,000 feet with no
significant weather and/or obstructions to visibility.

* = STATION THAT DOES NOT REPORT PRECIPITATION /E.G. RAIN...SNOW...ETC/
    THUNDER OR FOG.

PAZ002>004-007>009-013>016-020>023-029>032-021600-
WESTERN PENNSYLVANIA

CITY           SKY/WX    TMP DP  RH WIND       PRES   REMARKS
ERIE           PTSUNNY   80  68  66 W8        30.08S
MEADVILLE      SUNNY     79  68  69 W9        30.12S
FRANKLIN*      SUNNY     79  68  69 W7        30.14R
NEW CASTLE     FAIR      82  72  72 CALM      30.12S
BEAVER COUNTY  SUNNY     81  68  65 CALM      30.13R
BUTLER*        MOSUNNY   81  70  69 W3        30.14S
PITTSBURGH INT MOSUNNY   82  68  62 W6        30.12R
PITTSBURGH     PTSUNNY   79  65  62 VRB3      30.12R
INDIANA*       SUNNY     79  70  73 SW6       30.15S
LATROBE        MOSUNNY   81  68  65 W7        30.13S
WASHINGTON CO* MOSUNNY   81  68  65 CALM      30.14R
$$

PAZ004>006-010>012-017>019-024>028-033>037-041-042-045-046-049>053-021600-
CENTRAL PENNSYLVANIA

CITY           SKY/WX    TMP DP  RH WIND       PRES   REMARKS
BRADFORD       SUNNY     77  62  59 W7        30.13F
DUBOIS         SUNNY     81  65  58 VRB5      30.12S
CLEARFIELD     SUNNY     77  65  66 W3        30.12S
JOHNSTOWN      SUNNY     77  65  66 VRB3      30.16S
ALTOONA          N/A    N/A N/A N/A MISG      30.12F
STATE COLLEGE  SUNNY     77  66  69 CALM      30.10S
WILLIAMSPORT   SUNNY     76  65  68 W6        30.05F
SELINSGROVE    SUNNY     79  68  69 VRB3      30.06F
FT INDIANTOWN  MOSUNNY   83  66  56 VRB5      30.04F
CAPITAL CITY   SUNNY     83  65  54 N7        30.04F
HARRISBURG     SUNNY     83  65  54 W9        30.04F
YORK           MOSUNNY   82  67  60 N6        30.05F
$$

PAZ038>040-043-044-047-048-054-055-060>062-067>071-021600-
EASTERN PENNSYLVANIA

CITY           SKY/WX    TMP DP  RH WIND       PRES   REMARKS
SCRANTON       SUNNY     77  66  68 CALM      30.06F
MOUNT POCONO   SUNNY     78  64  61 NW6       30.10F
ALLENTOWN      MOSUNNY   81  67  62 SW5       30.03F
QUAKERTOWN*    MOSUNNY   84  66  54 W3        30.05S
READING        SUNNY     82  67  60 CALM      30.02F
LANCASTER      MOSUNNY   81  67  62 CALM      30.04F
COATESVILLE    PTSUNNY   82  66  57 W6        30.06S
POTTSTOWN      MOSUNNY   79  68  69 VRB6      30.05S
BLUE BELL      PTSUNNY   82  70  65 CALM      30.03S
DOYLESTOWN     MOSUNNY   82  68  62 VRB3      30.03S
WILLOW GROVE   NOT AVBL
NORTH PHILA    PTSUNNY   82  68  62 CALM      30.04S HAZE
PHILADELPHIA   PTSUNNY   83  70  64 VRB3      30.02F HAZE
$$



USA.gov is the U.S. government's official web portal to all federal, state and local government web resources and services.